Regional Weather Roundup
Issued by NWS

Home | Current Version | Previous Version | Text Only | Print | Product List | Glossary Off
Versions: 1 2 3 4 5 6 7 8 9 10 11 12 13 14 15 16 17 18 19 20 21 22 23 24 25 26 27 28 29 30 31 32 33 34 35 36 37 38 39 40 41 42 43 44 45 46 47 48 49 50

000
ASUS43 KFSD 271310
RWRSD

WEATHER ROUNDUP FOR SOUTH DAKOTA
NATIONAL WEATHER SERVICE SIOUX FALLS SD
800 AM CDT MON APR 27 2015

NOTE: "FAIR" INDICATES FEW OR NO CLOUDS BELOW 12,000 FEET WITH NO
SIGNIFICANT WEATHER AND/OR OBSTRUCTIONS TO VISIBILITY.


SDZ001>005-009-010-012>017-271400-
NORTHWEST AND NORTH CENTRAL SOUTH DAKOTA

CITY           SKY/WX    TMP DP  RH WIND       PRES   REMARKS
BUFFALO          N/A     38  37  97 NW16G25   30.20R
FAITH            N/A     45  42  89 N13       30.22R
MOBRIDGE       PTSUNNY   45  39  79 CALM      30.19R
$$

SDZ012>016-024>037-041>051-057-063-072>074-271400-
SOUTHWEST AND SOUTH CENTRAL SOUTH DAKOTA

CITY           SKY/WX    TMP DP  RH WIND       PRES   REMARKS
RAPID CTY ARPT CLOUDY    41  38  89 N18G29    30.23R
PIERRE         MOSUNNY   40  35  83 CALM      30.21R
CUSTER         CLOUDY    39  37  92 CALM      30.23R FOG
ELLSWORTH AFB  CLOUDY    41  38  90 N20       30.23
PHILIP         CLOUDY    49  40  71 CALM      30.22R
PINE RIDGE     PTSUNNY   37  35  92 CALM      30.22R
SPEARFISH      FAIR      37  37 100 NW8       30.29R FOG
WINNER         FAIR      43  29  57 SW5       30.22R
$$

SDZ004>011-016>023-039-040-271400-
NORTHEAST SOUTH DAKOTA

CITY           SKY/WX    TMP DP  RH WIND       PRES   REMARKS
ABERDEEN       SUNNY     40  31  70 CALM      30.22S
WATERTOWN      SUNNY     40  26  57 CALM      30.23R
BROOKINGS      SUNNY     36  28  75 CALM      30.24R
SISSETON         N/A     42  30  62 CALM      30.22R
$$

SDZ017-020-022-023-036>040-048>070-271400-
SOUTHEAST SOUTH DAKOTA

CITY           SKY/WX    TMP DP  RH WIND       PRES   REMARKS
SIOUX FALLS    MOSUNNY   42  32  67 NE5       30.23R
HURON          SUNNY     40  29  64 CALM      30.22R
CHAMBERLAIN    SUNNY     39  36  88 CALM      30.22R
MITCHELL       SUNNY     41  34  76 CALM      30.23R
YANKTON        MOSUNNY   39  30  70 CALM      30.21R
$$

ABBREVIATIONS USED IN REMARKS
   TC - TEMPERATURE IN CELSIUS
  WCI - WIND CHILL INDEX
   HX - HEAT INDEX
  VSB - VISIBILITY




USA.gov is the U.S. government's official web portal to all federal, state and local government web resources and services.